COSMOS 2384

导读 | 星芒AI

COSMOS 2384 是俄罗斯于1996年发射的一颗军用通信卫星,搭载于“联盟”号火箭,任务涉及军事通信与情报传输。该卫星属于俄罗斯长期部署的军事卫星系统,用于支持战略指挥与控制。由于其军事用途,具体技术细节和任务内容未公开。COSMOS 2384 在轨运行多年,体现了俄罗斯在军事航天领域的持续发展。

基本信息
目录编号:
27055
目录名称:
COSMOS 2384
国际标识:
2001-058A
轨道中心:
EARTH
卫星名称:
COSMOS 2384
卫星全名:
--
卫星状态:
在轨 (已飞行8751 天)
发射日期:
2001-12-28 UTC
国别 :
俄罗斯(独联体) (CIS)
星等 :
--
轨道信息
数据来源 国际轨道数据 AOE轨道数据
星历时间 2025-12-13T09:00:54+0800
8小时前
查看轨道信息
2025-12-09T21:00:00+0800
3天前
查看轨道信息
半长轴 7801.553km 7801.554km
偏心率 0.0009332 0.0009323
轨道倾角 82.546° 82.547°
近地点辐角 320.151° 328.909°
升交点赤经 352.366° 354.599°
平近点角 39.889° 1.614°
近地点 1416.137km 1416.145km
远地点 1430.699km 1430.693km
周期 114.296分钟 114.296分钟
每日圈数 12.598858 12.598856
详细信息
使用方式:
暂无
2D轨道图
3D轨道图
轨道高度分析图
轨道倾角分析图
轨道综合分析图
查看轨道综合分析图